TITAN 3C TRANSTAGE DEB, 1653

Orbit data source: Space-Track

TITAN 3C TRANSTAGE DEB, 1653 is space debris in LEO originally from a launch on Fri, 15 Oct 1965 UTC launched from the Air Force Eastern Test Range (AFETR). Debris objects in space refer to the collection of defunct objects orbiting the Earth. Examples of debris include non-operational satellites, rocket bodies, and fragments generated from explosions, collisions, or faulty payload assembly.

Loading next visibility...
TITAN 3C TRANSTAGE DEB details
Identifier
1653, 1965-082Q
Orbit
LEO
Last TLE update12 hours ago
Origin
Flag of USUSAF SSD (US)
ManufacturerUnknown
MissionSpacecraft
Bus & MotorUnknown
MassUnknown
Launch date (UTC)
1965-10-15 (59 years ago)
Launch vehicleUnknown
Launch site
Air Force Eastern Test Range (AFETR)
Object type
Payload
Rocket body
Debris
Shape & HBRUnknown
Radar Cross Section0.610 m², Medium (>0.1 m² and < 1m²)

Expand to show TLE details & history

TLE from 12 hours ago
0 TITAN 3C TRANSTAGE DEB
1 01653U 65082Q   25037.55258357  .00000928  00000-0  16512-3 0  9990
2 01653  32.1173 224.8274 0041329 249.0871 110.5347 14.63807468138812
Epoch: 2025-02-06T13:15Z
Definitive object data (Epoch: 2025-02-06T13:15:43.22Z)
Latitude-0.00001°
Longitude-111.03022°
Altitude689.891 km
Speed7.508 km/s
True Right ascension14h 59m 18s
True Declination0° 00' 00"
Sunlit
Object was in daylight at TLE epoch
Visualization TLE readout
Latitude12.62466°
Longitude-93.10066°
Altitude697.762 km
Speed7.5 km/s
Apparent Right ascension15h 41m 08s
Apparent Declination-12° 15' 20"
Sunlit
Object is in daylight
Visualization observer readout
Local Sidereal Time02:58:53
Azimuth338.452° N
Elevation-60.811°
Doppler factor1
Orbital elements
Apogee altitude713.695 km
Perigee altitude655.317 km
Semi-major axis7,062.643 km
Eccentricity0.0041329
Inclination32.1173°
RAAN224.8274°
Arg. of periapsis249.0871°
True anomaly110.9774°
Mean anomaly110.5347°
Eccentric anomaly110.75613°
Mean motion3.65672 °/min
BSTAR0.00016512
Orbital period98.45 mins
Loading maneuver chart data...

TITAN 3C TRANSTAGE DEB Visibility forecast

Observer location: undefined°, undefined

Span
Click to sort rows by Start time (UTC) header in descending order
Start Az.
Max El. time (UTC)
Max El. Az.
Max El.
End time (UTC)
End Az.
6 mins2025-02-07 15:40:45.600Z194.097° SSW2025-02-07 15:43:45.600Z154.194° SSE16.959°2025-02-07 15:46:45.600Z117.537° SE
7 mins2025-02-07 17:23:45.600Z226.714° WSW2025-02-07 17:26:45.600Z180.763° SSW27.422°2025-02-07 17:30:45.600Z116.151° SE
7 mins2025-02-07 19:07:45.600Z239.785° WSW2025-02-07 19:10:45.600Z190.779° SSW27.513°2025-02-07 19:14:45.600Z129.63° SE
5 mins2025-02-07 20:52:45.600Z226.452° WSW2025-02-07 20:54:45.600Z198.106° SSW16.743°2025-02-07 20:57:45.600Z161.132° S
|